Volver al catálogo

FLOCK 4G 23

ActivoCienciaSSO
NORAD 62647·PAYLOAD·🇺🇸 United States

Lanzado Jan 14, 2025 desde Vandenberg Space Force Base

Loading…

Próximos Pases (próximas 24 horas)

TLE

ActualizadoSource: Space-Track

Época: Sep 14, 2026, 11:41 UTC

1 62647U 25009AQ  26257.48713863  .00038175  00000-0  96999-3 0  9992
2 62647  97.3870 339.5039 0000158 354.9989   5.1255 15.39536754 92630

Sigue FLOCK 4G 23 en tiempo real con AllMySat

Download on the App Store